User: anonymous   Login
Location: Unspecified
(0.0000°N, 0.0000°E)
Time: 06:10:52
(UTC+00:00)
Language:

Transit 4B - Orbit

View from above orbital plane
View from above orbital plane
View from above satellite
View from above satellite

Ground track
Ground track

The orbit data is extracted from the following two-line orbital elements,

1 00202U 61031A   17296.52614914  .00000038  00000-0  20026-4 0  9997
2 00202  32.4395 338.5557 0101423 348.3128  11.5145 13.63508082789689
Epoch (UTC): 23 October 2017 12:37:39
Eccentricity: 0.0101423
inclination: 32.4395°
perigee height: 948 km
apogee height: 1098 km
right ascension of ascending node: 338.5557°
argument of perigee: 348.3128°
revolutions per day: 13.63508082
mean anomaly at epoch: 11.5145°
orbit number at epoch: 78968

The dashed part of the orbit path shows where the satellite is in the earth's shadow,  

DLR